JST473 YBHM-YSSY

Flight info

Callsign JST473
Flight time N/A
Altitude 35000
Route OVRON B462 MK H652 BOREE
Aircraft A320/M-SDE3FGHIRWY/LB1

Departure

Time N/A
Airport Hamilton Island Airport (YBHM)

Arrival

Time 2026-05-07 06:41
Airport Sydney Kingsford Smith International Airport (YSSY)
Time Latitude Longitude Altitude Speed Heading
2026-05-07 06:11 -31.30902 150.60462 35180 ft 505 kts 177°
2026-05-07 06:11 -31.37723 150.62576 35176 ft 504 kts 177°
2026-05-07 06:12 -31.44453 150.64660 35149 ft 501 kts 177°
2026-05-07 06:12 -31.51188 150.66753 35137 ft 500 kts 177°
2026-05-07 06:13 -31.57919 150.68848 35144 ft 501 kts 177°
2026-05-07 06:13 -31.64662 150.70943 35194 ft 501 kts 177°
2026-05-07 06:14 -31.71400 150.73053 35182 ft 501 kts 177°
2026-05-07 06:14 -31.78134 150.75161 35190 ft 501 kts 177°
2026-05-07 06:15 -31.84862 150.77263 35166 ft 500 kts 177°
2026-05-07 06:15 -31.91595 150.79371 35185 ft 500 kts 177°
2026-05-07 06:16 -31.98310 150.81477 35156 ft 499 kts 177°
2026-05-07 06:16 -32.05018 150.83383 35152 ft 486 kts 185°
2026-05-07 06:17 -32.11663 150.84546 35138 ft 485 kts 185°
2026-05-07 06:17 -32.18342 150.85696 35147 ft 485 kts 184°
2026-05-07 06:18 -32.24982 150.86873 35118 ft 481 kts 184°
2026-05-07 06:18 -32.31605 150.88040 34820 ft 481 kts 185°
2026-05-07 06:18 -32.34921 150.88617 34585 ft 481 kts 185°
2026-05-07 06:19 -32.38236 150.89191 34004 ft 485 kts 185°
2026-05-07 06:19 -32.41610 150.89769 32920 ft 493 kts 184°
2026-05-07 06:19 -32.45015 150.90363 32014 ft 496 kts 183°
2026-05-07 06:19 -32.48414 150.90975 31366 ft 490 kts 182°
2026-05-07 06:20 -32.51769 150.91589 30028 ft 488 kts 182°
2026-05-07 06:20 -32.55110 150.92192 28763 ft 480 kts 182°
2026-05-07 06:20 -32.58338 150.92782 28443 ft 459 kts 183°
2026-05-07 06:20 -32.61469 150.93351 27785 ft 453 kts 183°
2026-05-07 06:21 -32.64576 150.93900 27140 ft 449 kts 183°
2026-05-07 06:21 -32.67651 150.94437 26523 ft 446 kts 183°
2026-05-07 06:21 -32.70717 150.94969 25859 ft 443 kts 183°
2026-05-07 06:21 -32.73752 150.95498 25239 ft 439 kts 183°
2026-05-07 06:22 -32.76760 150.96027 24619 ft 435 kts 183°
2026-05-07 06:22 -32.82709 150.97084 23326 ft 429 kts 183°
2026-05-07 06:22 -32.85640 150.97609 22709 ft 423 kts 183°
2026-05-07 06:23 -32.88520 150.98127 22146 ft 415 kts 183°
2026-05-07 06:23 -32.91316 150.98629 21676 ft 409 kts 182°
2026-05-07 06:23 -32.94117 150.99128 21045 ft 405 kts 181°
2026-05-07 06:23 -32.96884 150.99618 20533 ft 399 kts 181°
2026-05-07 06:24 -32.99613 151.00104 20031 ft 393 kts 181°
2026-05-07 06:24 -33.02302 151.00583 19539 ft 389 kts 181°
2026-05-07 06:24 -33.04964 151.01057 19060 ft 385 kts 181°
2026-05-07 06:24 -33.07602 151.01528 18541 ft 381 kts 181°
2026-05-07 06:25 -33.10210 151.01996 17993 ft 377 kts 181°
2026-05-07 06:25 -33.12790 151.02459 17473 ft 372 kts 180°
2026-05-07 06:25 -33.15337 151.02920 16962 ft 367 kts 180°
2026-05-07 06:25 -33.17845 151.03371 16440 ft 363 kts 179°
2026-05-07 06:26 -33.20329 151.03816 15918 ft 359 kts 178°
2026-05-07 06:26 -33.22810 151.04255 15096 ft 363 kts 178°
2026-05-07 06:26 -33.25295 151.04698 14536 ft 359 kts 177°
2026-05-07 06:26 -33.27751 151.05158 13999 ft 355 kts 176°
2026-05-07 06:27 -33.30173 151.05624 13426 ft 350 kts 176°
2026-05-07 06:27 -33.32557 151.06091 12894 ft 344 kts 176°
2026-05-07 06:27 -33.34861 151.06541 12386 ft 338 kts 176°
2026-05-07 06:27 -33.37167 151.06985 11871 ft 333 kts 176°
2026-05-07 06:28 -33.39445 151.07421 11363 ft 329 kts 176°
2026-05-07 06:28 -33.41694 151.07852 10861 ft 326 kts 176°
2026-05-07 06:28 -33.43923 151.08279 10452 ft 320 kts 176°
2026-05-07 06:28 -33.46076 151.08694 10316 ft 307 kts 176°
2026-05-07 06:29 -33.48130 151.09094 10184 ft 288 kts 176°
2026-05-07 06:29 -33.50028 151.09471 9991 ft 267 kts 176°
2026-05-07 06:29 -33.51835 151.09824 9491 ft 260 kts 177°
2026-05-07 06:29 -33.53627 151.10163 9022 ft 260 kts 177°
2026-05-07 06:30 -33.55406 151.10499 8739 ft 257 kts 177°
2026-05-07 06:30 -33.57167 151.10833 8428 ft 255 kts 177°
2026-05-07 06:30 -33.58921 151.11164 8103 ft 255 kts 177°
2026-05-07 06:30 -33.60668 151.11495 7789 ft 254 kts 177°
2026-05-07 06:31 -33.62408 151.11831 7493 ft 252 kts 176°
2026-05-07 06:31 -33.64136 151.12172 7170 ft 252 kts 176°
2026-05-07 06:31 -33.65858 151.12512 6900 ft 249 kts 176°
2026-05-07 06:31 -33.67557 151.12850 6617 ft 246 kts 176°
2026-05-07 06:32 -33.69225 151.13181 6287 ft 246 kts 176°
2026-05-07 06:32 -33.70852 151.13862 5954 ft 257 kts 154°
2026-05-07 06:32 -33.72209 151.15314 5606 ft 266 kts 140°
2026-05-07 06:32 -33.73424 151.17008 5247 ft 268 kts 138°
2026-05-07 06:33 -33.74617 151.18735 4905 ft 269 kts 138°
2026-05-07 06:33 -33.75806 151.20479 4522 ft 269 kts 137°
2026-05-07 06:33 -33.76972 151.22182 4159 ft 270 kts 137°
2026-05-07 06:33 -33.78179 151.23907 3847 ft 270 kts 138°
2026-05-07 06:34 -33.79396 151.25625 3532 ft 270 kts 137°
2026-05-07 06:34 -33.80620 151.27341 3185 ft 269 kts 137°
2026-05-07 06:34 -33.81818 151.29011 3052 ft 260 kts 138°
2026-05-07 06:34 -33.82968 151.30625 2919 ft 253 kts 138°
2026-05-07 06:35 -33.84084 151.32206 2806 ft 243 kts 138°
2026-05-07 06:35 -33.85146 151.33735 2738 ft 232 kts 139°
2026-05-07 06:35 -33.86246 151.34987 2729 ft 209 kts 155°
2026-05-07 06:35 -33.87491 151.35699 2747 ft 181 kts 179°
2026-05-07 06:36 -33.88608 151.35699 2741 ft 149 kts 203°
2026-05-07 06:36 -33.89477 151.35191 2710 ft 136 kts 223°
2026-05-07 06:36 -33.90076 151.34324 2604 ft 134 kts 243°
2026-05-07 06:36 -33.90368 151.33275 2478 ft 131 kts 252°
2026-05-07 06:37 -33.90618 151.32227 2317 ft 130 kts 253°
2026-05-07 06:37 -33.90865 151.31189 2150 ft 129 kts 254°
2026-05-07 06:37 -33.91111 151.30153 1977 ft 129 kts 254°
2026-05-07 06:37 -33.91357 151.29117 1818 ft 129 kts 255°
2026-05-07 06:38 -33.91601 151.28083 1658 ft 129 kts 253°
2026-05-07 06:38 -33.91844 151.27051 1475 ft 127 kts 252°
2026-05-07 06:38 -33.92094 151.26023 1294 ft 128 kts 251°
2026-05-07 06:38 -33.92335 151.24992 1099 ft 128 kts 252°
2026-05-07 06:39 -33.92576 151.23965 963 ft 127 kts 252°
2026-05-07 06:39 -33.92812 151.22950 807 ft 126 kts 255°
2026-05-07 06:39 -33.93050 151.21948 605 ft 126 kts 255°
2026-05-07 06:39 -33.93291 151.20915 434 ft 127 kts 255°
2026-05-07 06:40 -33.93542 151.19890 250 ft 128 kts 255°
2026-05-07 06:40 -33.93777 151.18869 73 ft 126 kts 256°
2026-05-07 06:40 -33.94005 151.17917 28 ft 101 kts 253°
2026-05-07 06:40 -33.94152 151.17305 28 ft 51 kts 254°
2026-05-07 06:41 -33.94231 151.16968 29 ft 28 kts 254°
2026-05-07 06:41 -33.94198 151.16857 28 ft 5 kts 342°
2026-05-07 06:41 -33.94196 151.16856 28 ft 0 kts 344°
2026-05-07 06:42 -33.94195 151.16856 28 ft 1 kts 344°
2026-05-07 06:42 -33.94189 151.16854 28 ft 1 kts 344°
2026-05-07 06:42 -33.94174 151.16849 29 ft 5 kts 344°
2026-05-07 06:42 -33.94121 151.16833 30 ft 9 kts 347°
2026-05-07 06:43 -33.94061 151.16853 30 ft 11 kts 54°
2026-05-07 06:43 -33.94036 151.16950 30 ft 14 kts 76°
2026-05-07 06:43 -33.94010 151.17069 30 ft 16 kts 75°
2026-05-07 06:43 -33.93977 151.17208 29 ft 18 kts 74°
2026-05-07 06:44 -33.93954 151.17295 28 ft 0 kts 72°
2026-05-07 06:44 -33.93954 151.17297 28 ft 1 kts 72°
2026-05-07 06:44 -33.93945 151.17334 27 ft 9 kts 74°
2026-05-07 06:44 -33.93923 151.17428 27 ft 13 kts 74°
2026-05-07 06:45 -33.93896 151.17542 28 ft 15 kts 74°
2026-05-07 06:45 -33.93866 151.17664 29 ft 15 kts 72°
2026-05-07 06:45 -33.93787 151.17694 30 ft 14 kts 346°
2026-05-07 06:45 -33.93687 151.17662 30 ft 12 kts 336°
2026-05-07 06:46 -33.93647 151.17703 30 ft 10 kts 91°
2026-05-07 06:46 -33.93656 151.17790 30 ft 9 kts 79°
2026-05-07 06:46 -33.93621 151.17792 30 ft 5 kts 304°
2026-05-07 06:46 -33.93601 151.17754 30 ft 2 kts 302°
2026-05-07 06:47 -33.93598 151.17748 30 ft 0 kts 302°